Weather History for Pittsburgh Allegheny Co., PA

Change the Weather History Date:

Saturday, January 26, 2013

  Actual Average Record
Temperature  
Mean Temperature 23 °F -  
Max Temperature 27 °F 37 °F 57 °F (1989)
Min Temperature 19 °F 18 °F 6 °F (1988)
Degree Days  
Heating Degree Days 42    
Moisture  
Dew Point 18 °F    
Average Humidity 79    
Maximum Humidity 93    
Minimum Humidity 63    
Precipitation  
Precipitation 0.00 in - - ()
Sea Level Pressure  
Sea Level Pressure 30.22 in    
Wind  
Wind Speed 7 mph (West)    
Max Wind Speed 10 mph    
Max Gust Speed 16 mph    
Visibility 5 miles    
Events Snow    
Averages and records for this station are not official NWS values.
T = Trace of Precipitation, MM = Missing Value Source: NWS Daily Summary

Daily Weather History Graph

Daily Weather History Graph

Search for Another Location

Airport:

Trip Planner

Search our weather history database for the weather conditions in past years. The results will help you decide how hot, cold, wet, or windy it might be!

Date:

Astronomy

Jan. 26, 2013 Rise Set
Actual Time 7:33 AM EST 5:31 PM EST
Civil Twilight 7:04 AM EST 6:00 PM EST
Nautical Twilight 6:31 AM EST 6:33 PM EST
Astronomical Twilight 5:59 AM EST 7:05 PM EST
Moon 5:24 PM EST (1/26) 6:50 AM EST (1/26)
Length of Visible Light 10h 55m
Length of Day
9h 57m
Full, 100% of the Moon is Illuminated
Jan 26
Full
Jan 26
Full
Feb 3
Last Quarter
Feb 10
New
Feb 17
First Quarter

Hourly Weather History & Observations

Time (EST) Temp. Windchill Dew Point Humidity Pressure Visibility Wind Dir Wind Speed Gust Speed Precip Events Conditions
12:53 AM 19.0 °F 9.0 °F 15.1 °F 85% 30.12 in 6.0 mi SW 8.1 mph - 0.00 in Snow Light Snow
1:53 AM 19.0 °F 10.0 °F 16.0 °F 88% 30.13 in 4.0 mi SW 6.9 mph - 0.00 in Snow Light Snow
2:53 AM 19.9 °F 11.1 °F 16.0 °F 85% 30.14 in 4.0 mi SW 6.9 mph - 0.00 in Snow Light Snow
3:06 AM 19.4 °F 10.4 °F 15.8 °F 86% 30.06 in 2.5 mi SW 6.9 mph - 0.00 in Snow Light Snow
3:14 AM 19.4 °F 9.5 °F 15.8 °F 86% 30.06 in 4.0 mi SW 8.1 mph - 0.00 in Snow Light Snow
3:53 AM 19.9 °F 12.1 °F 16.0 °F 85% 30.14 in 4.0 mi SW 5.8 mph - 0.00 in Snow Light Snow
4:48 AM 19.4 °F 10.4 °F 17.6 °F 93% 30.08 in 7.0 mi WSW 6.9 mph - 0.00 in   Overcast
4:53 AM 19.9 °F 9.3 °F 17.1 °F 89% 30.15 in 7.0 mi SW 9.2 mph - 0.00 in   Overcast
5:53 AM 21.0 °F 12.4 °F 17.1 °F 85% 30.16 in 5.0 mi WSW 6.9 mph - 0.00 in Snow Light Snow
6:53 AM 21.0 °F 13.4 °F 18.0 °F 88% 30.18 in 7.0 mi WSW 5.8 mph - 0.00 in   Overcast
7:53 AM 21.9 °F 15.7 °F 18.0 °F 85% 30.19 in 5.0 mi WSW 4.6 mph - N/A   Overcast
8:01 AM 21.2 °F 12.6 °F 17.6 °F 86% 30.11 in 4.0 mi WSW 6.9 mph - N/A   Overcast
8:34 AM 21.2 °F 14.9 °F 19.4 °F 93% 30.12 in 3.0 mi WSW 4.6 mph - 0.00 in Snow Light Snow
8:46 AM 21.2 °F 13.6 °F 19.4 °F 93% 30.13 in 2.5 mi WSW 5.8 mph - 0.00 in Snow Light Snow
8:53 AM 21.9 °F 13.4 °F 19.0 °F 89% 30.20 in 2.0 mi WSW 6.9 mph - 0.00 in Snow Light Snow
9:00 AM 21.2 °F 13.6 °F 19.4 °F 93% 30.13 in 1.5 mi West 5.8 mph - 0.00 in Snow Light Snow
9:40 AM 23.0 °F 14.7 °F 19.4 °F 86% 30.15 in 2.0 mi West 6.9 mph - 0.00 in Snow Light Snow
9:53 AM 24.1 °F 16.0 °F 19.9 °F 84% 30.23 in 2.0 mi West 6.9 mph - 0.00 in Snow Light Snow
10:48 AM 24.8 °F 16.9 °F 19.4 °F 80% 30.16 in 2.0 mi West 6.9 mph - 0.00 in   Haze
10:53 AM 25.0 °F 15.5 °F 21.0 °F 85% 30.23 in 2.0 mi West 9.2 mph - 0.00 in   Overcast
11:04 AM 24.8 °F 16.9 °F 19.4 °F 80% 30.16 in 2.0 mi West 6.9 mph - 0.00 in Snow Light Snow
11:51 AM 26.6 °F 19.1 °F 19.4 °F 74% 30.17 in 7.0 mi WNW 6.9 mph - 0.00 in   Overcast
11:53 AM 26.1 °F 19.4 °F 19.9 °F 78% 30.25 in 7.0 mi WNW 5.8 mph - 0.00 in   Overcast
12:53 PM 27.0 °F 17.3 °F 19.0 °F 72% 30.25 in 7.0 mi West 10.4 mph - N/A   Overcast
1:32 PM 26.6 °F 18.2 °F 19.4 °F 74% 30.18 in 8.0 mi WNW 8.1 mph - N/A   Overcast
1:43 PM 26.6 °F 19.1 °F 19.4 °F 74% 30.18 in 4.0 mi WNW 6.9 mph - 0.00 in Snow Light Snow
1:53 PM 27.0 °F 18.7 °F 19.0 °F 72% 30.26 in 4.0 mi West 8.1 mph - 0.00 in Snow Light Snow
2:14 PM 26.6 °F 17.5 °F 19.4 °F 74% 30.19 in 1.8 mi NW 9.2 mph - 0.00 in Snow Light Snow
2:27 PM 26.6 °F 19.1 °F 21.2 °F 80% 30.20 in 0.8 mi NW 6.9 mph 16.1 mph 0.00 in Snow Light Snow
2:35 PM 26.6 °F 21.2 °F 21.2 °F 80% 30.20 in 1.0 mi NW 4.6 mph - 0.00 in Snow Light Snow
2:51 PM 26.6 °F 18.2 °F 21.2 °F 80% 30.20 in 3.0 mi NW 8.1 mph - 0.00 in Snow Light Snow
2:53 PM 27.0 °F 18.0 °F 19.9 °F 75% 30.27 in 3.0 mi West 9.2 mph - 0.00 in Snow Light Snow
3:11 PM 26.6 °F 16.8 °F 19.4 °F 74% 30.21 in 2.0 mi NW 10.4 mph - 0.00 in Snow Light Snow
3:36 PM 26.6 °F 21.2 °F 19.4 °F 74% 30.22 in 7.0 mi NW 4.6 mph - 0.00 in   Overcast
3:53 PM 27.0 °F 20.5 °F 18.0 °F 69% 30.30 in 7.0 mi NW 5.8 mph - 0.00 in   Overcast
4:15 PM 26.6 °F 17.5 °F 17.6 °F 69% 30.24 in 2.0 mi NW 9.2 mph - 0.00 in Snow Light Snow
4:41 PM 26.6 °F 22.6 °F 17.6 °F 69% 30.25 in 9.0 mi WNW 3.5 mph - 0.00 in   Overcast
4:53 PM 26.1 °F 16.8 °F 16.0 °F 66% 30.32 in 10.0 mi WNW 9.2 mph - 0.00 in   Overcast
5:53 PM 25.0 °F 16.3 °F 14.0 °F 63% 30.35 in 10.0 mi West 8.1 mph - N/A   Overcast
6:53 PM 25.0 °F 17.1 °F 16.0 °F 69% 30.38 in 10.0 mi WNW 6.9 mph - N/A   Overcast
7:14 PM 24.8 °F 16.9 °F 17.6 °F 74% 30.32 in 4.0 mi NW 6.9 mph - 0.00 in Snow Light Snow
7:53 PM 24.1 °F 17.0 °F 18.0 °F 77% 30.41 in 3.0 mi NW 5.8 mph - 0.00 in Snow Light Snow
8:25 PM 24.8 °F 17.9 °F 17.6 °F 74% 30.35 in 4.0 mi WNW 5.8 mph - 0.00 in Snow Light Snow
8:53 PM 23.0 °F 13.1 °F 15.1 °F 72% 30.43 in 10.0 mi NW 9.2 mph - 0.00 in   Overcast
9:53 PM 21.9 °F 15.7 °F 12.9 °F 68% 30.44 in 10.0 mi NNW 4.6 mph - N/A   Partly Cloudy
10:53 PM 21.0 °F - 12.9 °F 71% 30.46 in 10.0 mi Calm Calm - N/A   Clear
11:53 PM 19.0 °F - 12.9 °F 77% 30.47 in 10.0 mi Calm Calm - N/A   Clear